Date String (YYYY-MM-DD hh:mm:ss) UTC,Instrument flags,absolute air pressure of the measurement (hPa),sample flow rate (lpm),inlet stack bypass flow (lpm),air temperature of the measurement (°C),ambient temperature measured by the external sensor (°C),aerosol sample conditioner tube jacket temperature (°C),OPC LED temperature (°C),internal box temperature (°C),relative humidity of the measurement (%),span deviation,mass concentration of particles derived from Lorenz-Mie calculation of OPC scattering (μg/m³),mass concentration of particles derived from Lorenz-Mie calculation of OPC scattering (μg/m³),mass concentration of particles derived from Lorenz-Mie calculation of OPC scattering (μg/m³)
DateTimeUTC,F1_M11,P_M11,Q1_M11,Q2_M11,T1_M11,T2_M11,T3_M11,T4_M11,T5_M11,U1_M11,ZSPAN_M11,X0_M11,X2_M11,X1_M11
2023-12-17 05:00:00,SystemResetWarning,0830.5,5.01,000.00,024.4,023.2,000.0,032.8,025.6,7.7,0000.0,0000.38,0000.27,0000.23
2023-12-17 05:01:00,SystemResetWarning,0830.6,5.00,000.00,024.4,023.2,000.0,032.8,025.6,7.8,0000.0,0000.41,0000.28,0000.23
2023-12-17 05:02:00,SystemResetWarning,0830.6,5.00,000.00,024.4,023.1,000.0,032.8,025.6,7.8,0000.0,0000.52,0000.28,0000.23
2023-12-17 05:03:00,SystemResetWarning,0830.5,5.00,000.00,024.4,023.1,000.0,032.8,025.6,7.8,0000.0,0000.55,0000.29,0000.23
2023-12-17 05:04:00,SystemResetWarning,0830.4,5.00,000.00,024.4,023.1,000.0,032.8,025.6,7.6,0000.0,0000.54,0000.29,0000.22
2023-12-17 05:05:00,SystemResetWarning,0830.4,4.99,000.00,024.4,023.1,000.0,032.8,025.6,7.5,0000.0,0000.54,0000.29,0000.22
2023-12-17 05:06:00,SystemResetWarning,0830.4,5.01,000.00,024.4,023.1,000.0,032.8,025.5,7.6,0000.0,0000.55,0000.29,0000.22
2023-12-17 05:07:00,SystemResetWarning,0830.5,5.01,000.00,024.4,023.0,000.0,032.8,025.5,7.8,0000.0,0000.52,0000.28,0000.22
2023-12-17 05:08:00,SystemResetWarning,0830.4,4.99,000.00,024.4,023.0,000.0,032.7,025.5,7.6,0000.0,0000.55,0000.29,0000.22
2023-12-17 05:09:00,SystemResetWarning,0830.4,4.99,000.00,024.3,023.0,000.0,032.7,025.5,7.6,0000.0,0000.57,0000.29,0000.23
2023-12-17 05:10:00,SystemResetWarning,0830.4,5.00,000.00,024.3,023.0,000.0,032.7,025.5,7.5,0000.0,0000.59,0000.30,0000.23
2023-12-17 05:11:00,SystemResetWarning,0830.4,5.02,000.00,024.3,023.0,000.0,032.7,025.5,7.6,0000.0,0000.57,0000.30,0000.24
2023-12-17 05:12:00,SystemResetWarning,0830.3,5.01,000.00,024.3,023.0,000.0,032.7,025.5,7.8,0000.0,0000.57,0000.30,0000.24
2023-12-17 05:13:00,SystemResetWarning,0830.4,5.00,000.00,024.3,023.0,000.0,032.7,025.5,7.6,0000.0,0000.48,0000.32,0000.25
2023-12-17 05:14:00,SystemResetWarning,0830.4,4.99,000.00,024.3,022.9,000.0,032.7,025.5,7.6,0000.0,0000.45,0000.31,0000.25
2023-12-17 05:15:00,SystemResetWarning,0830.4,4.99,000.00,024.3,022.9,000.0,032.7,025.5,7.6,0000.0,0000.48,0000.32,0000.25
2023-12-17 05:16:00,SystemResetWarning,0830.5,5.00,000.00,024.3,022.9,000.0,032.7,025.5,7.5,0000.0,0000.53,0000.35,0000.25
2023-12-17 05:17:00,SystemResetWarning,0830.4,5.00,000.00,024.3,022.9,000.0,032.6,025.5,7.4,0000.0,0000.53,0000.36,0000.26
2023-12-17 05:18:00,SystemResetWarning,0830.4,5.01,000.00,024.2,022.9,000.0,032.6,025.4,7.4,0000.0,0000.55,0000.36,0000.26
2023-12-17 05:19:00,SystemResetWarning,0830.4,5.00,000.00,024.2,022.9,000.0,032.6,025.4,7.5,0000.0,0000.57,0000.37,0000.26
2023-12-17 05:20:00,SystemResetWarning,0830.4,5.00,000.00,024.2,022.9,000.0,032.6,025.4,7.5,0000.0,0000.56,0000.38,0000.26
2023-12-17 05:21:00,SystemResetWarning,0830.4,5.00,000.00,024.2,022.9,000.0,032.6,025.4,7.4,0000.0,0000.56,0000.38,0000.25
2023-12-17 05:22:00,SystemResetWarning,0830.4,5.00,000.00,024.2,022.8,000.0,032.6,025.4,7.5,0000.0,0000.57,0000.38,0000.25
2023-12-17 05:23:00,SystemResetWarning,0830.3,4.99,000.00,024.2,022.8,000.0,032.5,025.4,7.5,0000.0,0000.58,0000.39,0000.26
2023-12-17 05:24:00,SystemResetWarning,0830.3,4.99,000.00,024.2,022.8,000.0,032.5,025.3,7.4,0000.0,0000.56,0000.37,0000.26
2023-12-17 05:25:00,SystemResetWarning,0830.3,5.00,000.00,024.2,022.8,000.0,032.5,025.3,7.4,0000.0,0000.56,0000.37,0000.26
2023-12-17 05:26:00,SystemResetWarning,0830.3,5.01,000.00,024.2,022.8,000.0,032.5,025.3,7.5,0000.0,0000.67,0000.37,0000.26
2023-12-17 05:27:00,SystemResetWarning,0830.3,5.00,000.00,024.1,022.8,000.0,032.5,025.2,7.7,0000.0,0000.69,0000.36,0000.25
2023-12-17 05:28:00,SystemResetWarning,0830.3,4.98,000.00,024.1,022.8,000.0,032.5,025.3,7.6,0000.0,0000.66,0000.33,0000.25
2023-12-17 05:29:00,SystemResetWarning,0830.2,5.01,000.00,024.1,022.8,000.0,032.5,025.3,7.6,0000.0,0000.66,0000.33,0000.25
2023-12-17 05:30:00,SystemResetWarning,0830.2,5.01,000.00,024.1,022.8,000.0,032.5,025.2,7.4,0000.0,0000.66,0000.34,0000.25
2023-12-17 05:31:00,SystemResetWarning,0830.2,4.99,000.00,024.1,022.8,000.0,032.5,025.3,7.5,0000.0,0000.64,0000.33,0000.26
2023-12-17 05:32:00,SystemResetWarning,0830.3,4.99,000.00,024.1,022.8,000.0,032.5,025.3,7.5,0000.0,0000.62,0000.32,0000.26
2023-12-17 05:33:00,SystemResetWarning,0830.3,5.01,000.00,024.1,022.8,000.0,032.4,025.2,7.5,0000.0,0000.59,0000.31,0000.26
2023-12-17 05:34:00,SystemResetWarning,0830.3,5.01,000.00,024.0,022.7,000.0,032.4,025.2,7.5,0000.0,0000.61,0000.31,0000.25
2023-12-17 05:35:00,SystemResetWarning,0830.3,4.99,000.00,024.0,022.7,000.0,032.4,025.2,7.4,0000.0,0000.77,0000.34,0000.25
2023-12-17 05:36:00,SystemResetWarning,0830.3,5.00,000.00,024.0,022.7,000.0,032.4,025.1,7.4,0000.0,0000.82,0000.36,0000.25
2023-12-17 05:37:00,SystemResetWarning,0830.3,4.99,000.00,024.0,022.7,000.0,032.4,025.2,7.6,0000.0,0000.73,0000.36,0000.25
2023-12-17 05:38:00,SystemResetWarning,0830.3,4.99,000.00,024.0,022.7,000.0,032.4,025.2,7.5,0000.0,0000.72,0000.39,0000.26
2023-12-17 05:39:00,SystemResetWarning,0830.3,5.00,000.00,024.0,022.7,000.0,032.4,025.2,7.5,0000.0,0000.76,0000.42,0000.26
2023-12-17 05:40:00,SystemResetWarning,0830.3,5.01,000.00,024.0,022.7,000.0,032.4,025.2,7.5,0000.0,0000.75,0000.42,0000.26
2023-12-17 05:41:00,SystemResetWarning,0830.4,5.00,000.00,024.0,022.7,000.0,032.3,025.2,7.5,0000.0,0000.71,0000.40,0000.26
2023-12-17 05:42:00,SystemResetWarning,0830.3,5.00,000.00,024.0,022.7,000.0,032.3,025.1,7.5,0000.0,0000.69,0000.39,0000.25
2023-12-17 05:43:00,SystemResetWarning,0830.3,5.00,000.00,023.9,022.7,000.0,032.3,025.2,7.5,0000.0,0000.69,0000.39,0000.25
2023-12-17 05:44:00,SystemResetWarning,0830.3,5.01,000.00,023.9,022.7,000.0,032.3,025.1,7.6,0000.0,0000.69,0000.40,0000.26
2023-12-17 05:45:00,SystemResetWarning,0830.3,4.98,000.00,023.9,022.7,000.0,032.3,025.1,7.5,0000.0,0000.67,0000.39,0000.26
2023-12-17 05:46:00,SystemResetWarning,0830.3,5.00,000.00,023.9,022.6,000.0,032.3,025.1,7.5,0000.0,0000.52,0000.36,0000.27
2023-12-17 05:47:00,SystemResetWarning,0830.3,5.01,000.00,023.9,022.6,000.0,032.3,025.1,7.5,0000.0,0000.44,0000.34,0000.27
2023-12-17 05:48:00,SystemResetWarning,0830.3,5.01,000.00,023.9,022.6,000.0,032.3,025.1,7.5,0000.0,0000.42,0000.34,0000.26
2023-12-17 05:49:00,SystemResetWarning,0830.3,4.98,000.00,023.9,022.6,000.0,032.3,025.0,7.4,0000.0,0000.41,0000.32,0000.27
2023-12-17 05:50:00,SystemResetWarning,0830.4,5.00,000.00,023.9,022.6,000.0,032.3,025.1,7.4,0000.0,0000.38,0000.30,0000.27
2023-12-17 05:51:00,SystemResetWarning,0830.3,5.00,000.00,023.9,022.6,000.0,032.3,025.1,7.4,0000.0,0000.38,0000.30,0000.27
2023-12-17 05:52:00,SystemResetWarning,0830.3,5.01,000.00,023.9,022.6,000.0,032.2,025.1,7.4,0000.0,0000.41,0000.31,0000.27
2023-12-17 05:53:00,SystemResetWarning,0830.3,5.00,000.00,023.9,022.6,000.0,032.2,025.1,7.4,0000.0,0000.45,0000.33,0000.27
2023-12-17 05:54:00,SystemResetWarning,0830.4,5.00,000.00,023.9,022.6,000.0,032.2,025.1,7.4,0000.0,0000.46,0000.33,0000.27
2023-12-17 05:55:00,SystemResetWarning,0830.4,5.00,000.00,023.9,022.6,000.0,032.2,025.1,7.4,0000.0,0000.50,0000.34,0000.27
2023-12-17 05:56:00,SystemResetWarning,0830.5,5.00,000.00,023.8,022.6,000.0,032.2,025.1,7.5,0000.0,0000.54,0000.35,0000.27
2023-12-17 05:57:00,SystemResetWarning,0830.5,4.99,000.00,023.8,022.6,000.0,032.2,025.1,7.5,0000.0,0000.55,0000.36,0000.27
2023-12-17 05:58:00,SystemResetWarning,0830.4,5.00,000.00,023.8,022.6,000.0,032.2,025.1,7.5,0000.0,0001.01,0000.36,0000.27
2023-12-17 05:59:00,SystemResetWarning,0830.4,5.00,000.00,023.8,022.7,000.0,032.2,025.1,7.5,0000.0,0001.56,0000.35,0000.27
